{"data":{"norad_id":67657,"intl_designator":"2026-022K","name":"STARLINK-36706","alt_names":[],"object_type":"PAYLOAD","status":"ACTIVE","operator":null,"country":"US","launch_date":"2026-02-02","launch_site_code":"AFWTR","launch_vehicle":null,"mission":null,"orbit_class":"UNKNOWN","rcs_meters":null,"size_class":null,"mass_kg":null,"dimensions":null,"purposes":["comms"],"wikipedia_slug":null,"has_3d_model":false,"image_url":null,"decayed_at":null,"tle_current":{"epoch":"2026-05-25T01:22:36.595200Z","epoch_age_seconds":84269,"freshness":"FRESH","line1":"1 67657U 26022K   26145.05736800  .00004539  00000+0  14287-3 0  9995","line2":"2 67657  97.2863 178.2752 0000159 284.9080  75.2145 15.33438319 17277","mean_motion":15.33438319,"eccentricity":1.59e-5,"inclination_deg":97.2863,"raan_deg":178.2752,"arg_perigee_deg":284.908,"mean_anomaly_deg":75.2145,"bstar":0.00014287,"rev_number":1727,"period_min":93.906613794487,"perigee_km":465.45423767498,"apogee_km":465.67186733665,"semimajor_km":6843.7000525058,"source":"CELESTRAK","updated_at":"2026-05-25T13:38:21.658331Z"}}}